Year,Month,Day,Hour,Minute,Value (Times are PST for temperature in C)
2009,06,28,00,00,13.20
2009,06,28,00,01,13.20
2009,06,28,00,02,13.20
2009,06,28,00,03,13.20
2009,06,28,00,04,13.20
2009,06,28,00,05,13.20
2009,06,28,00,06,13.20
2009,06,28,00,07,13.20
2009,06,28,00,08,13.20
2009,06,28,00,09,13.20
2009,06,28,00,10,13.20
2009,06,28,00,11,13.20
2009,06,28,00,12,13.20
2009,06,28,00,13,13.20
2009,06,28,00,14,13.20
2009,06,28,00,15,13.20
2009,06,28,00,16,13.20
2009,06,28,00,17,13.20
2009,06,28,00,18,13.20
2009,06,28,00,19,13.20
2009,06,28,00,20,13.20
2009,06,28,00,21,13.20
2009,06,28,00,22,13.20
2009,06,28,00,23,13.20
2009,06,28,00,24,13.30
2009,06,28,00,25,13.30
2009,06,28,00,26,13.30
2009,06,28,00,27,13.30
2009,06,28,00,28,13.30
2009,06,28,00,29,13.30
2009,06,28,00,30,13.30
2009,06,28,00,31,13.30
2009,06,28,00,32,13.30
2009,06,28,00,33,13.30
2009,06,28,00,34,13.30
2009,06,28,00,35,13.30
2009,06,28,00,36,13.30
2009,06,28,00,37,13.30
2009,06,28,00,38,13.30
2009,06,28,00,39,13.30
2009,06,28,00,40,13.30
2009,06,28,00,41,13.30
2009,06,28,00,42,13.20
2009,06,28,00,43,13.20
2009,06,28,00,44,13.20
2009,06,28,00,45,13.10
2009,06,28,00,46,13.10
2009,06,28,00,47,13.00
2009,06,28,00,48,13.00
2009,06,28,00,49,13.00
2009,06,28,00,50,12.90
2009,06,28,00,51,12.90
2009,06,28,00,52,12.90
2009,06,28,00,53,12.90
2009,06,28,00,54,12.90
2009,06,28,00,55,12.80
2009,06,28,00,56,12.80
2009,06,28,00,57,12.80
2009,06,28,00,58,12.80
2009,06,28,00,59,12.80
2009,06,28,01,00,12.80
2009,06,28,01,01,12.80
2009,06,28,01,02,12.80
2009,06,28,01,03,12.80
2009,06,28,01,04,12.90
2009,06,28,01,05,12.90
2009,06,28,01,06,13.00
2009,06,28,01,07,13.00
2009,06,28,01,08,12.90
2009,06,28,01,09,12.90
2009,06,28,01,10,12.80
2009,06,28,01,11,12.80
2009,06,28,01,12,12.80
2009,06,28,01,13,12.90
2009,06,28,01,14,12.90
2009,06,28,01,15,12.90
2009,06,28,01,16,12.90
2009,06,28,01,17,12.90
2009,06,28,01,18,12.90
2009,06,28,01,19,12.80
2009,06,28,01,20,12.80
2009,06,28,01,21,12.80
2009,06,28,01,22,12.80
2009,06,28,01,23,12.80
2009,06,28,01,24,12.80
2009,06,28,01,25,12.80
2009,06,28,01,26,12.80
2009,06,28,01,27,12.80
2009,06,28,01,28,12.80
2009,06,28,01,29,12.80
2009,06,28,01,30,12.80
2009,06,28,01,31,12.80
2009,06,28,01,32,12.80
2009,06,28,01,33,12.80
2009,06,28,01,34,12.80
2009,06,28,01,35,12.80
2009,06,28,01,36,12.80
2009,06,28,01,37,12.80
2009,06,28,01,38,12.80
2009,06,28,01,39,12.80
2009,06,28,01,40,12.90
2009,06,28,01,41,12.90
2009,06,28,01,42,12.90
2009,06,28,01,43,12.90
2009,06,28,01,44,12.90
2009,06,28,01,45,13.00
2009,06,28,01,46,13.00
2009,06,28,01,47,13.10
2009,06,28,01,48,13.10
2009,06,28,01,49,13.20
2009,06,28,01,50,13.30
2009,06,28,01,51,13.30
2009,06,28,01,52,13.30
2009,06,28,01,53,13.30
2009,06,28,01,54,13.30
2009,06,28,01,55,13.30
2009,06,28,01,56,13.30
2009,06,28,01,57,13.30
2009,06,28,01,58,13.30
2009,06,28,01,59,13.30
2009,06,28,02,00,13.30
2009,06,28,02,01,13.30
2009,06,28,02,02,13.30
2009,06,28,02,03,13.30
2009,06,28,02,04,13.30
2009,06,28,02,05,13.30
2009,06,28,02,06,13.30
2009,06,28,02,07,13.30
2009,06,28,02,08,13.30
2009,06,28,02,09,13.30
2009,06,28,02,10,13.30
2009,06,28,02,11,13.30
2009,06,28,02,12,13.30
2009,06,28,02,13,13.30
2009,06,28,02,14,13.30
2009,06,28,02,15,13.30
2009,06,28,02,16,13.20
2009,06,28,02,17,13.20
2009,06,28,02,18,13.20
2009,06,28,02,19,13.30
2009,06,28,02,20,13.30
2009,06,28,02,21,13.30
2009,06,28,02,22,13.30
2009,06,28,02,23,13.30
2009,06,28,02,24,13.30
2009,06,28,02,25,13.30
2009,06,28,02,26,13.30
2009,06,28,02,27,13.30
2009,06,28,02,28,13.30
2009,06,28,02,29,13.30
2009,06,28,02,30,13.30
2009,06,28,02,31,13.30
2009,06,28,02,32,13.30
2009,06,28,02,33,13.40
2009,06,28,02,34,13.40
2009,06,28,02,35,13.40
2009,06,28,02,36,13.40
2009,06,28,02,37,13.50
2009,06,28,02,38,13.50
2009,06,28,02,39,13.40
2009,06,28,02,40,13.40
2009,06,28,02,41,13.40
2009,06,28,02,42,13.30
2009,06,28,02,43,13.30
2009,06,28,02,44,13.30
2009,06,28,02,45,13.30
2009,06,28,02,46,13.20
2009,06,28,02,47,13.20
2009,06,28,02,48,13.10
2009,06,28,02,49,13.00
2009,06,28,02,50,13.00
2009,06,28,02,51,12.90
2009,06,28,02,52,12.90
2009,06,28,02,53,13.00
2009,06,28,02,54,13.00
2009,06,28,02,55,12.90
2009,06,28,02,56,12.90
2009,06,28,02,57,12.90
2009,06,28,02,58,12.80
2009,06,28,02,59,12.80
2009,06,28,03,00,12.70
2009,06,28,03,01,12.70
2009,06,28,03,02,12.60
2009,06,28,03,03,12.60
2009,06,28,03,04,12.60
2009,06,28,03,05,12.50
2009,06,28,03,06,12.50
2009,06,28,03,07,12.50
2009,06,28,03,08,12.50
2009,06,28,03,09,12.40
2009,06,28,03,10,12.30
2009,06,28,03,11,12.30
2009,06,28,03,12,12.30
2009,06,28,03,13,12.30
2009,06,28,03,14,12.30
2009,06,28,03,15,12.30
2009,06,28,03,16,12.20
2009,06,28,03,17,12.10
2009,06,28,03,18,12.10
2009,06,28,03,19,12.10
2009,06,28,03,20,12.10
2009,06,28,03,21,12.10
2009,06,28,03,22,12.20
2009,06,28,03,23,12.20
2009,06,28,03,24,12.20
2009,06,28,03,25,12.10
2009,06,28,03,26,12.10
2009,06,28,03,27,12.00
2009,06,28,03,28,12.00
2009,06,28,03,29,12.00
2009,06,28,03,30,12.00
2009,06,28,03,31,12.00
2009,06,28,03,32,12.00
2009,06,28,03,33,12.00
2009,06,28,03,34,12.00
2009,06,28,03,35,12.00
2009,06,28,03,36,11.90
2009,06,28,03,37,11.90
2009,06,28,03,38,11.90
2009,06,28,03,39,11.90
2009,06,28,03,40,11.90
2009,06,28,03,41,11.90
2009,06,28,03,42,11.90
2009,06,28,03,43,11.90
2009,06,28,03,44,11.90
2009,06,28,03,45,11.90
2009,06,28,03,46,11.80
2009,06,28,03,47,11.80
2009,06,28,03,48,11.80
2009,06,28,03,49,11.80
2009,06,28,03,50,11.80
2009,06,28,03,51,11.80
2009,06,28,03,52,11.80
2009,06,28,03,53,11.70
2009,06,28,03,54,11.70
2009,06,28,03,55,11.70
2009,06,28,03,56,11.70
2009,06,28,03,57,11.60
2009,06,28,03,58,11.60
2009,06,28,03,59,11.60
2009,06,28,04,00,11.60
2009,06,28,04,01,11.60
2009,06,28,04,02,11.60
2009,06,28,04,03,11.60
2009,06,28,04,04,11.60
2009,06,28,04,05,11.60
2009,06,28,04,06,11.60
2009,06,28,04,07,11.60
2009,06,28,04,08,11.60
2009,06,28,04,09,11.60
2009,06,28,04,10,11.60
2009,06,28,04,11,11.50
2009,06,28,04,12,11.40
2009,06,28,04,13,11.40
2009,06,28,04,14,11.40
2009,06,28,04,15,11.40
2009,06,28,04,16,11.40
2009,06,28,04,17,11.40
2009,06,28,04,18,11.40
2009,06,28,04,19,11.30
2009,06,28,04,20,11.30
2009,06,28,04,21,11.30
2009,06,28,04,22,11.30
2009,06,28,04,23,11.20
2009,06,28,04,24,11.20
2009,06,28,04,25,11.20
2009,06,28,04,26,11.20
2009,06,28,04,27,11.20
2009,06,28,04,28,11.10
2009,06,28,04,29,11.10
2009,06,28,04,30,11.10
2009,06,28,04,31,11.10
2009,06,28,04,32,11.10
2009,06,28,04,33,10.90
2009,06,28,04,34,10.90
2009,06,28,04,35,10.90
2009,06,28,04,36,10.90
2009,06,28,04,37,10.90
2009,06,28,04,38,10.90
2009,06,28,04,39,10.90
2009,06,28,04,40,10.90
2009,06,28,04,41,10.90
2009,06,28,04,42,10.90
2009,06,28,04,43,10.90
2009,06,28,04,44,10.80
2009,06,28,04,45,10.80
2009,06,28,04,46,10.80
2009,06,28,04,47,10.80
2009,06,28,04,48,10.80
2009,06,28,04,49,10.80
2009,06,28,04,50,10.80
2009,06,28,04,51,10.80
2009,06,28,04,52,10.80
2009,06,28,04,53,10.80
2009,06,28,04,54,10.80
2009,06,28,04,55,10.70
2009,06,28,04,56,10.70
2009,06,28,04,57,10.70
2009,06,28,04,58,10.70
2009,06,28,04,59,10.70
2009,06,28,05,00,10.60
2009,06,28,05,01,10.60
2009,06,28,05,02,10.60
2009,06,28,05,03,10.60
2009,06,28,05,04,10.60
2009,06,28,05,05,10.60
2009,06,28,05,06,10.60
2009,06,28,05,07,10.60
2009,06,28,05,08,10.60
2009,06,28,05,09,10.60
2009,06,28,05,10,10.50
2009,06,28,05,11,10.40
2009,06,28,05,12,10.40
2009,06,28,05,13,10.40
2009,06,28,05,14,10.40
2009,06,28,05,15,10.40
2009,06,28,05,16,10.40
2009,06,28,05,17,10.40
2009,06,28,05,18,10.40
2009,06,28,05,19,10.40
2009,06,28,05,20,10.40
2009,06,28,05,21,10.40
2009,06,28,05,22,10.40
2009,06,28,05,23,10.40
2009,06,28,05,24,10.40
2009,06,28,05,25,10.40
2009,06,28,05,26,10.40
2009,06,28,05,27,10.40
2009,06,28,05,28,10.40
2009,06,28,05,29,10.40
2009,06,28,05,30,10.40
2009,06,28,05,31,10.40
2009,06,28,05,32,10.30
2009,06,28,05,33,10.30
2009,06,28,05,34,10.30
2009,06,28,05,35,10.30
2009,06,28,05,36,10.30
2009,06,28,05,37,10.30
2009,06,28,05,38,10.30
2009,06,28,05,39,10.30
2009,06,28,05,40,10.30
2009,06,28,05,41,10.30
2009,06,28,05,42,10.30
2009,06,28,05,43,10.30
2009,06,28,05,44,10.30
2009,06,28,05,45,10.30
2009,06,28,05,46,10.30
2009,06,28,05,47,10.30
2009,06,28,05,48,10.20
2009,06,28,05,49,10.20
2009,06,28,05,50,10.20
2009,06,28,05,51,10.20
2009,06,28,05,52,10.20
2009,06,28,05,53,10.20
2009,06,28,05,54,10.20
2009,06,28,05,55,10.20
2009,06,28,05,56,10.20
2009,06,28,05,57,10.20
2009,06,28,05,58,10.20
2009,06,28,05,59,10.20
2009,06,28,06,00,10.20
2009,06,28,06,01,10.30
2009,06,28,06,02,10.30
2009,06,28,06,03,10.30
2009,06,28,06,04,10.20
2009,06,28,06,05,10.20
2009,06,28,06,06,10.20
2009,06,28,06,07,10.20
2009,06,28,06,08,10.30
2009,06,28,06,09,10.30
2009,06,28,06,10,10.30
2009,06,28,06,11,10.30
2009,06,28,06,12,10.30
2009,06,28,06,13,10.30
2009,06,28,06,14,10.40
2009,06,28,06,15,10.40
2009,06,28,06,16,10.40
2009,06,28,06,17,10.40
2009,06,28,06,18,10.40
2009,06,28,06,19,10.40
2009,06,28,06,20,10.40
2009,06,28,06,21,10.40
2009,06,28,06,22,10.40
2009,06,28,06,23,10.40
2009,06,28,06,24,10.40
2009,06,28,06,25,10.40
2009,06,28,06,26,10.40
2009,06,28,06,27,10.50
2009,06,28,06,28,10.60
2009,06,28,06,29,10.60
2009,06,28,06,30,10.60
2009,06,28,06,31,10.60
2009,06,28,06,32,10.60
2009,06,28,06,33,10.60
2009,06,28,06,34,10.60
2009,06,28,06,35,10.60
2009,06,28,06,36,10.60
2009,06,28,06,37,10.60
2009,06,28,06,38,10.60
2009,06,28,06,39,10.60
2009,06,28,06,40,10.60
2009,06,28,06,41,10.60
2009,06,28,06,42,10.70
2009,06,28,06,43,10.70
2009,06,28,06,44,10.60
2009,06,28,06,45,10.60
2009,06,28,06,46,10.60
2009,06,28,06,47,10.60
2009,06,28,06,48,10.60
2009,06,28,06,49,10.60
2009,06,28,06,50,10.60
2009,06,28,06,51,10.60
2009,06,28,06,52,10.60
2009,06,28,06,53,10.70
2009,06,28,06,54,10.70
2009,06,28,06,55,10.70
2009,06,28,06,56,10.80
2009,06,28,06,57,10.80
2009,06,28,06,58,10.80
2009,06,28,06,59,10.80
2009,06,28,07,00,10.90
2009,06,28,07,01,10.90
2009,06,28,07,02,10.90
2009,06,28,07,03,10.90
2009,06,28,07,04,10.90
2009,06,28,07,05,10.90
2009,06,28,07,06,10.90
2009,06,28,07,07,10.90
2009,06,28,07,08,11.00
2009,06,28,07,09,11.10
2009,06,28,07,10,11.10
2009,06,28,07,11,11.10
2009,06,28,07,12,11.10
2009,06,28,07,13,11.10
2009,06,28,07,14,11.10
2009,06,28,07,15,11.20
2009,06,28,07,16,11.20
2009,06,28,07,17,11.20
2009,06,28,07,18,11.20
2009,06,28,07,19,11.30
2009,06,28,07,20,11.30
2009,06,28,07,21,11.30
2009,06,28,07,22,11.30
2009,06,28,07,23,11.40
2009,06,28,07,24,11.30
2009,06,28,07,25,11.40
2009,06,28,07,26,11.40
2009,06,28,07,27,11.40
2009,06,28,07,28,11.40
2009,06,28,07,29,11.40
2009,06,28,07,30,11.40
2009,06,28,07,31,11.40
2009,06,28,07,32,11.40
2009,06,28,07,33,11.60
2009,06,28,07,34,11.60
2009,06,28,07,35,11.60
2009,06,28,07,36,11.60
2009,06,28,07,37,11.60
2009,06,28,07,38,11.70
2009,06,28,07,39,11.70
2009,06,28,07,40,11.80
2009,06,28,07,41,11.80
2009,06,28,07,42,11.80
2009,06,28,07,43,11.80
2009,06,28,07,44,11.80
2009,06,28,07,45,11.80
2009,06,28,07,46,11.80
2009,06,28,07,47,11.90
2009,06,28,07,48,12.00
2009,06,28,07,49,12.00
2009,06,28,07,50,12.00
2009,06,28,07,51,12.00
2009,06,28,07,52,12.10
2009,06,28,07,53,12.10
2009,06,28,07,54,12.10
2009,06,28,07,55,12.20
2009,06,28,07,56,12.20
2009,06,28,07,57,12.30
2009,06,28,07,58,12.30
2009,06,28,07,59,12.30
2009,06,28,08,00,12.30
2009,06,28,08,01,12.30
2009,06,28,08,02,12.30
2009,06,28,08,03,12.40
2009,06,28,08,04,12.50
2009,06,28,08,05,12.50
2009,06,28,08,06,12.50
2009,06,28,08,07,12.50
2009,06,28,08,08,12.50
2009,06,28,08,09,12.50
2009,06,28,08,10,12.60
2009,06,28,08,11,12.60
2009,06,28,08,12,12.60
2009,06,28,08,13,12.60
2009,06,28,08,14,12.60
2009,06,28,08,15,12.60
2009,06,28,08,16,12.60
2009,06,28,08,17,12.60
2009,06,28,08,18,12.60
2009,06,28,08,19,12.60
2009,06,28,08,20,12.50
2009,06,28,08,21,12.60
2009,06,28,08,22,12.50
2009,06,28,08,23,12.60
2009,06,28,08,24,12.60
2009,06,28,08,25,12.70
2009,06,28,08,26,12.70
2009,06,28,08,27,12.70
2009,06,28,08,28,12.70
2009,06,28,08,29,12.70
2009,06,28,08,30,12.70
2009,06,28,08,31,12.70
2009,06,28,08,32,12.70
2009,06,28,08,33,12.70
2009,06,28,08,34,12.70
2009,06,28,08,35,12.70
2009,06,28,08,36,12.80
2009,06,28,08,37,12.80
2009,06,28,08,38,12.80
2009,06,28,08,39,12.80
2009,06,28,08,40,12.90
2009,06,28,08,41,12.90
2009,06,28,08,42,12.90
2009,06,28,08,43,13.00
2009,06,28,08,44,13.00
2009,06,28,08,45,13.00
2009,06,28,08,46,13.10
2009,06,28,08,47,13.10
2009,06,28,08,48,13.20
2009,06,28,08,49,13.20
2009,06,28,08,50,13.30
2009,06,28,08,51,13.30
2009,06,28,08,52,13.30
2009,06,28,08,53,13.30
2009,06,28,08,54,13.30
2009,06,28,08,55,13.30
2009,06,28,08,56,13.30
2009,06,28,08,57,13.30
2009,06,28,08,58,13.30
2009,06,28,08,59,13.40
2009,06,28,09,00,13.40
2009,06,28,09,01,13.40
2009,06,28,09,02,13.40
2009,06,28,09,03,13.50
2009,06,28,09,04,13.50
2009,06,28,09,05,13.60
2009,06,28,09,06,13.60
2009,06,28,09,07,13.60
2009,06,28,09,08,13.70
2009,06,28,09,09,13.70
2009,06,28,09,10,13.70
2009,06,28,09,11,13.80
2009,06,28,09,12,13.90
2009,06,28,09,13,13.90
2009,06,28,09,14,13.90
2009,06,28,09,15,14.10
2009,06,28,09,16,14.20
2009,06,28,09,17,14.20
2009,06,28,09,18,14.20
2009,06,28,09,19,14.20
2009,06,28,09,20,14.20
2009,06,28,09,21,14.20
2009,06,28,09,22,14.20
2009,06,28,09,23,14.20
2009,06,28,09,24,14.30
2009,06,28,09,25,14.30
2009,06,28,09,26,14.30
2009,06,28,09,27,14.20
2009,06,28,09,28,14.20
2009,06,28,09,29,14.20
2009,06,28,09,30,14.20
2009,06,28,09,31,14.30
2009,06,28,09,32,14.40
2009,06,28,09,33,14.50
2009,06,28,09,34,14.50
2009,06,28,09,35,14.60
2009,06,28,09,36,14.70
2009,06,28,09,37,14.70
2009,06,28,09,38,14.70
2009,06,28,09,39,14.60
2009,06,28,09,40,14.60
2009,06,28,09,41,14.60
2009,06,28,09,42,14.60
2009,06,28,09,43,14.70
2009,06,28,09,44,14.70
2009,06,28,09,45,14.80
2009,06,28,09,46,14.80
2009,06,28,09,47,14.90
2009,06,28,09,48,14.90
2009,06,28,09,49,15.00
2009,06,28,09,50,15.00
2009,06,28,09,51,15.00
2009,06,28,09,52,15.00
2009,06,28,09,53,15.00
2009,06,28,09,54,14.90
2009,06,28,09,55,14.90
2009,06,28,09,56,14.80
2009,06,28,09,57,14.80
2009,06,28,09,58,14.80
2009,06,28,09,59,14.90
2009,06,28,10,00,14.90
2009,06,28,10,01,14.90
2009,06,28,10,02,14.90
2009,06,28,10,03,14.90
2009,06,28,10,04,14.90
2009,06,28,10,05,15.00
2009,06,28,10,06,15.10
2009,06,28,10,07,15.00
2009,06,28,10,08,15.00
2009,06,28,10,09,15.00
2009,06,28,10,10,15.00
2009,06,28,10,11,15.10
2009,06,28,10,12,15.20
2009,06,28,10,13,15.20
2009,06,28,10,14,15.10
2009,06,28,10,15,15.20
2009,06,28,10,16,15.20
2009,06,28,10,17,15.40
2009,06,28,10,18,15.50
2009,06,28,10,19,15.50
2009,06,28,10,20,15.50
2009,06,28,10,21,15.50
2009,06,28,10,22,15.60
2009,06,28,10,23,15.70
2009,06,28,10,24,15.80
2009,06,28,10,25,15.80
2009,06,28,10,26,15.80
2009,06,28,10,27,15.80
2009,06,28,10,28,15.80
2009,06,28,10,29,15.90
2009,06,28,10,30,16.00
2009,06,28,10,31,16.10
2009,06,28,10,32,16.10
2009,06,28,10,33,16.00
2009,06,28,10,34,15.80
2009,06,28,10,35,15.80
2009,06,28,10,36,15.70
2009,06,28,10,37,15.70
2009,06,28,10,38,15.80
2009,06,28,10,39,15.80
2009,06,28,10,40,15.80
2009,06,28,10,41,15.80
2009,06,28,10,42,15.80
2009,06,28,10,43,15.80
2009,06,28,10,44,15.80
2009,06,28,10,45,15.80
2009,06,28,10,46,15.90
2009,06,28,10,47,15.90
2009,06,28,10,48,15.90
2009,06,28,10,49,15.90
2009,06,28,10,50,15.80
2009,06,28,10,51,15.80
2009,06,28,10,52,15.70
2009,06,28,10,53,15.70
2009,06,28,10,54,15.60
2009,06,28,10,55,15.60
2009,06,28,10,56,15.60
2009,06,28,10,57,15.60
2009,06,28,10,58,15.80
2009,06,28,10,59,15.80
2009,06,28,11,00,16.00
2009,06,28,11,01,16.10
2009,06,28,11,02,16.30
2009,06,28,11,03,16.30
2009,06,28,11,04,16.40
2009,06,28,11,05,16.40
2009,06,28,11,06,16.40
2009,06,28,11,07,16.50
2009,06,28,11,08,16.60
2009,06,28,11,09,16.70
2009,06,28,11,10,16.70
2009,06,28,11,11,16.60
2009,06,28,11,12,16.50
2009,06,28,11,13,16.40
2009,06,28,11,14,16.30
2009,06,28,11,15,16.20
2009,06,28,11,16,16.20
2009,06,28,11,17,16.10
2009,06,28,11,18,16.10
2009,06,28,11,19,15.90
2009,06,28,11,20,15.70
2009,06,28,11,21,15.70
2009,06,28,11,22,15.80
2009,06,28,11,23,15.80
2009,06,28,11,24,15.90
2009,06,28,11,25,15.90
2009,06,28,11,26,15.90
2009,06,28,11,27,15.90
2009,06,28,11,28,15.90
2009,06,28,11,29,16.10
2009,06,28,11,30,16.10
2009,06,28,11,31,16.20
2009,06,28,11,32,16.20
2009,06,28,11,33,16.10
2009,06,28,11,34,16.10
2009,06,28,11,35,16.10
2009,06,28,11,36,16.10
2009,06,28,11,37,16.20
2009,06,28,11,38,16.30
2009,06,28,11,39,16.30
2009,06,28,11,40,16.30
2009,06,28,11,41,16.40
2009,06,28,11,42,16.40
2009,06,28,11,43,16.30
2009,06,28,11,44,16.30
2009,06,28,11,45,16.30
2009,06,28,11,46,16.30
2009,06,28,11,47,16.40
2009,06,28,11,48,16.40
2009,06,28,11,49,16.40
2009,06,28,11,50,16.50
2009,06,28,11,51,16.60
2009,06,28,11,52,16.70
2009,06,28,11,53,16.80
2009,06,28,11,54,16.80
2009,06,28,11,55,16.80
2009,06,28,11,56,16.70
2009,06,28,11,57,16.50
2009,06,28,11,58,16.30
2009,06,28,11,59,16.20
2009,06,28,12,00,16.20
2009,06,28,12,01,16.30
2009,06,28,12,02,16.40
2009,06,28,12,03,16.40
2009,06,28,12,04,16.40
2009,06,28,12,05,16.40
2009,06,28,12,06,16.30
2009,06,28,12,07,16.20
2009,06,28,12,08,16.20
2009,06,28,12,09,16.20
2009,06,28,12,10,16.10
2009,06,28,12,11,16.10
2009,06,28,12,12,16.10
2009,06,28,12,13,16.10
2009,06,28,12,14,16.20
2009,06,28,12,15,16.20
2009,06,28,12,16,16.20
2009,06,28,12,17,16.30
2009,06,28,12,18,16.30
2009,06,28,12,19,16.40
2009,06,28,12,20,16.40
2009,06,28,12,21,16.60
2009,06,28,12,22,16.60
2009,06,28,12,23,16.70
2009,06,28,12,24,16.70
2009,06,28,12,25,16.60
2009,06,28,12,26,16.60
2009,06,28,12,27,16.60
2009,06,28,12,28,16.60
2009,06,28,12,29,16.70
2009,06,28,12,30,16.60
2009,06,28,12,31,16.60
2009,06,28,12,32,16.70
2009,06,28,12,33,16.60
2009,06,28,12,34,16.60
2009,06,28,12,35,16.50
2009,06,28,12,36,16.40
2009,06,28,12,37,16.50
2009,06,28,12,38,16.60
2009,06,28,12,39,16.70
2009,06,28,12,40,16.90
2009,06,28,12,41,16.90
2009,06,28,12,42,16.80
2009,06,28,12,43,16.80
2009,06,28,12,44,16.80
2009,06,28,12,45,16.80
2009,06,28,12,46,16.90
2009,06,28,12,47,16.90
2009,06,28,12,48,17.00
2009,06,28,12,49,17.00
2009,06,28,12,50,17.10
2009,06,28,12,51,17.30
2009,06,28,12,52,17.40
2009,06,28,12,53,17.60
2009,06,28,12,54,17.70
2009,06,28,12,55,17.60
2009,06,28,12,56,17.50
2009,06,28,12,57,17.50
2009,06,28,12,58,17.50
2009,06,28,12,59,17.60
2009,06,28,13,00,17.60
2009,06,28,13,01,17.60
2009,06,28,13,02,17.50
2009,06,28,13,03,17.60
2009,06,28,13,04,17.60
2009,06,28,13,05,17.60
2009,06,28,13,06,17.60
2009,06,28,13,07,17.70
2009,06,28,13,08,17.60
2009,06,28,13,09,17.70
2009,06,28,13,10,17.80
2009,06,28,13,11,17.90
2009,06,28,13,12,17.90
2009,06,28,13,13,17.80
2009,06,28,13,14,17.50
2009,06,28,13,15,17.30
2009,06,28,13,16,17.30
2009,06,28,13,17,17.20
2009,06,28,13,18,17.10
2009,06,28,13,19,17.10
2009,06,28,13,20,17.10
2009,06,28,13,21,17.20
2009,06,28,13,22,17.20
2009,06,28,13,23,17.20
2009,06,28,13,24,17.20
2009,06,28,13,25,17.20
2009,06,28,13,26,17.20
2009,06,28,13,27,17.30
2009,06,28,13,28,17.40
2009,06,28,13,29,17.60
2009,06,28,13,30,17.70
2009,06,28,13,31,17.90
2009,06,28,13,32,18.00
2009,06,28,13,33,17.90
2009,06,28,13,34,17.80
2009,06,28,13,35,17.70
2009,06,28,13,36,17.40
2009,06,28,13,37,17.30
2009,06,28,13,38,17.20
2009,06,28,13,39,17.20
2009,06,28,13,40,17.30
2009,06,28,13,41,17.30
2009,06,28,13,42,17.40
2009,06,28,13,43,17.50
2009,06,28,13,44,17.70
2009,06,28,13,45,17.70
2009,06,28,13,46,17.80
2009,06,28,13,47,17.90
2009,06,28,13,48,18.00
2009,06,28,13,49,18.20
2009,06,28,13,50,18.40
2009,06,28,13,51,18.50
2009,06,28,13,52,18.60
2009,06,28,13,53,18.50
2009,06,28,13,54,18.50
2009,06,28,13,55,18.50
2009,06,28,13,56,18.40
2009,06,28,13,57,18.40
2009,06,28,13,58,18.30
2009,06,28,13,59,18.30
2009,06,28,14,00,18.20
2009,06,28,14,01,18.20
2009,06,28,14,02,18.20
2009,06,28,14,03,18.20
2009,06,28,14,04,18.20
2009,06,28,14,05,18.30
2009,06,28,14,06,18.30
2009,06,28,14,07,18.30
2009,06,28,14,08,18.30
2009,06,28,14,09,18.30
2009,06,28,14,10,18.30
2009,06,28,14,11,18.20
2009,06,28,14,12,18.20
2009,06,28,14,13,18.20
2009,06,28,14,14,18.20
2009,06,28,14,15,18.20
2009,06,28,14,16,18.30
2009,06,28,14,17,18.30
2009,06,28,14,18,18.30
2009,06,28,14,19,18.20
2009,06,28,14,20,18.20
2009,06,28,14,21,18.30
2009,06,28,14,22,18.40
2009,06,28,14,23,18.40
2009,06,28,14,24,18.40
2009,06,28,14,25,18.50
2009,06,28,14,26,18.50
2009,06,28,14,27,18.40
2009,06,28,14,28,18.50
2009,06,28,14,29,18.50
2009,06,28,14,30,18.60
2009,06,28,14,31,18.60
2009,06,28,14,32,18.50
2009,06,28,14,33,18.60
2009,06,28,14,34,18.60
2009,06,28,14,35,18.70
2009,06,28,14,36,18.70
2009,06,28,14,37,18.70
2009,06,28,14,38,18.70
2009,06,28,14,39,18.80
2009,06,28,14,40,18.80
2009,06,28,14,41,18.80
2009,06,28,14,42,18.70
2009,06,28,14,43,18.70
2009,06,28,14,44,18.70
2009,06,28,14,45,18.70
2009,06,28,14,46,18.80
2009,06,28,14,47,18.90
2009,06,28,14,48,18.90
2009,06,28,14,49,18.90
2009,06,28,14,50,18.90
2009,06,28,14,51,18.90
2009,06,28,14,52,18.90
2009,06,28,14,53,18.90
2009,06,28,14,54,18.90
2009,06,28,14,55,18.90
2009,06,28,14,56,18.90
2009,06,28,14,57,18.90
2009,06,28,14,58,18.80
2009,06,28,14,59,18.70
2009,06,28,15,00,18.70
2009,06,28,15,01,18.60
2009,06,28,15,02,18.60
2009,06,28,15,03,18.60
2009,06,28,15,04,18.60
2009,06,28,15,05,18.50
2009,06,28,15,06,18.50
2009,06,28,15,07,18.60
2009,06,28,15,08,18.60
2009,06,28,15,09,18.80
2009,06,28,15,10,18.90
2009,06,28,15,11,18.90
2009,06,28,15,12,19.10
2009,06,28,15,13,19.10
2009,06,28,15,14,19.20
2009,06,28,15,15,19.20
2009,06,28,15,16,19.30
2009,06,28,15,17,19.30
2009,06,28,15,18,19.20
2009,06,28,15,19,19.10
2009,06,28,15,20,19.10
2009,06,28,15,21,19.10
2009,06,28,15,22,19.00
2009,06,28,15,23,18.90
2009,06,28,15,24,18.60
2009,06,28,15,25,18.50
2009,06,28,15,26,18.40
2009,06,28,15,27,18.30
2009,06,28,15,28,18.30
2009,06,28,15,29,18.30
2009,06,28,15,30,18.30
2009,06,28,15,31,18.20
2009,06,28,15,32,18.10
2009,06,28,15,33,18.10
2009,06,28,15,34,18.20
2009,06,28,15,35,18.20
2009,06,28,15,36,18.20
2009,06,28,15,37,18.40
2009,06,28,15,38,18.50
2009,06,28,15,39,18.50
2009,06,28,15,40,18.60
2009,06,28,15,41,18.60
2009,06,28,15,42,18.60
2009,06,28,15,43,18.50
2009,06,28,15,44,18.50
2009,06,28,15,45,18.40
2009,06,28,15,46,18.50
2009,06,28,15,47,18.60
2009,06,28,15,48,18.70
2009,06,28,15,49,18.80
2009,06,28,15,50,18.80
2009,06,28,15,51,18.70
2009,06,28,15,52,18.70
2009,06,28,15,53,18.70
2009,06,28,15,54,18.80
2009,06,28,15,55,18.90
2009,06,28,15,56,18.90
2009,06,28,15,57,19.10
2009,06,28,15,58,19.10
2009,06,28,15,59,19.10
2009,06,28,16,00,19.10
2009,06,28,16,01,19.10
2009,06,28,16,02,19.00
2009,06,28,16,03,18.90
2009,06,28,16,04,19.10
2009,06,28,16,05,19.00
2009,06,28,16,06,18.90
2009,06,28,16,07,19.00
2009,06,28,16,08,19.10
2009,06,28,16,09,19.20
2009,06,28,16,10,19.20
2009,06,28,16,11,19.20
2009,06,28,16,12,19.20
2009,06,28,16,13,19.20
2009,06,28,16,14,19.20
2009,06,28,16,15,19.10
2009,06,28,16,16,19.10
2009,06,28,16,17,19.30
2009,06,28,16,18,19.40
2009,06,28,16,19,19.40
2009,06,28,16,20,19.30
2009,06,28,16,21,19.20
2009,06,28,16,22,19.10
2009,06,28,16,23,19.10
2009,06,28,16,24,19.10
2009,06,28,16,25,19.10
2009,06,28,16,26,19.10
2009,06,28,16,27,19.00
2009,06,28,16,28,18.90
2009,06,28,16,29,19.10
2009,06,28,16,30,19.10
2009,06,28,16,31,19.20
2009,06,28,16,32,19.30
2009,06,28,16,33,19.40
2009,06,28,16,34,19.50
2009,06,28,16,35,19.60
2009,06,28,16,36,19.60
2009,06,28,16,37,19.60
2009,06,28,16,38,19.60
2009,06,28,16,39,19.70
2009,06,28,16,40,19.70
2009,06,28,16,41,19.60
2009,06,28,16,42,19.60
2009,06,28,16,43,19.60
2009,06,28,16,44,19.60
2009,06,28,16,45,19.60
2009,06,28,16,46,19.60
2009,06,28,16,47,19.60
2009,06,28,16,48,19.60
2009,06,28,16,49,19.60
2009,06,28,16,50,19.40
2009,06,28,16,51,19.30
2009,06,28,16,52,19.30
2009,06,28,16,53,19.20
2009,06,28,16,54,19.20
2009,06,28,16,55,19.20
2009,06,28,16,56,19.20
2009,06,28,16,57,19.30
2009,06,28,16,58,19.30
2009,06,28,16,59,19.30
2009,06,28,17,00,19.30
2009,06,28,17,01,19.30
2009,06,28,17,02,19.30
2009,06,28,17,03,19.40
2009,06,28,17,04,19.40
2009,06,28,17,05,19.40
2009,06,28,17,06,19.50
2009,06,28,17,07,19.50
2009,06,28,17,08,19.60
2009,06,28,17,09,19.50
2009,06,28,17,10,19.50
2009,06,28,17,11,19.60
2009,06,28,17,12,19.60
2009,06,28,17,13,19.60
2009,06,28,17,14,19.50
2009,06,28,17,15,19.30
2009,06,28,17,16,19.30
2009,06,28,17,17,19.20
2009,06,28,17,18,19.10
2009,06,28,17,19,19.20